Home   Weather   Dublin   Past weeks

Flag for Ireland Past Weather in Dublin, Ireland — Yesterday and Last 2 Weeks

Now
45 °F

Passing clouds.


Feels Like: 41 °F
Forecast: 36 / 46 °F
Wind: 6 mph from Southeast

Location: Dublin Airport

Current Time: Jan 20, 2017 at 2:10:55 am

Latest Report: Jan 20, 2017 at 1:30 am


Visibility: N/A

Pressure: 30.54 "Hg

Humidity: 93%

Dew Point: 43 °F

Location of DublinLocation

Past Weather in Dublin — Graph

°F

Dublin Temperature Yesterday

Maximum temperature yesterday: 46 °F (at 2:00 am)
Minimum temperature yesterday: 45 °F (at 12:00 am)
Average temperature yesterday: 45 °F

High & Low Weather Summary for the Past Weeks

 TemperatureHumidityPressure
High54 °F (Jan 6, 6:30 pm)100% (Jan 6, 3:30 pm)30.66 "Hg (Jan 6, 3:30 pm)
Low32 °F (Jan 12, 6:30 pm)61% (Jan 11, 11:30 am)29.50 "Hg (Jan 12, 8:00 pm)
Average44 °F87%30.24 "Hg
* Reported Jan 5 12:00 am — Jan 20 12:30 am, Dublin, Weather by CustomWeather, © 2017

Note: Actual official high and low records may vary slightly from our data, if they occured in-between our weather recording intervals... More about our weather records

Advertising

Dublin Weather History for the Previous 24 Hours

Scroll right to see more
 ConditionsComfort  
Time TempWeatherWind HumidityBarometerVisibility
12:30 am
Fri, Jan 20
45 °FPartly cloudy.5 mph93%30.57 "Hg4 mi
12:00 am43 °FPartly cloudy.2 mph100%30.57 "Hg4 mi
11:30 pm
Thu, Jan 19
45 °FDrizzle. Low clouds.2 mph93%30.57 "Hg3 mi
11:00 pm45 °FDrizzle. Overcast.5 mph87%30.57 "Hg4 mi
10:30 pm45 °FOvercast.2 mph87%30.60 "HgN/A
10:00 pm45 °FOvercast.3 mph87%30.57 "HgN/A
9:30 pm45 °FOvercast.5 mph87%30.60 "HgN/A
9:00 pm45 °FOvercast.5 mph87%30.60 "HgN/A
8:30 pm45 °FOvercast.3 mph87%30.60 "HgN/A
8:00 pm45 °FOvercast.6 mph87%30.60 "HgN/A
7:30 pm45 °FOvercast.6 mph81%30.60 "HgN/A
7:00 pm45 °FOvercast.5 mph87%30.60 "HgN/A
6:30 pm45 °FOvercast.7 mph81%30.57 "HgN/A
6:00 pm45 °FOvercast.7 mph87%30.57 "HgN/A
5:30 pm45 °FOvercast.7 mph81%30.57 "HgN/A
5:00 pm45 °FOvercast.6 mph87%30.57 "HgN/A
4:30 pm45 °FOvercast.6 mph87%30.60 "HgN/A
4:00 pm45 °FOvercast.7 mph87%30.60 "HgN/A
3:30 pm45 °FOvercast.3 mph87%30.60 "HgN/A
3:00 pm45 °FPartly sunny.3 mph87%30.60 "HgN/A
2:30 pm45 °FOvercast.6 mph87%30.60 "HgN/A
2:00 pm45 °FOvercast.3 mph87%30.60 "HgN/A
1:30 pm46 °FOvercast.3 mph82%30.60 "HgN/A
1:00 pm46 °FOvercast.1 mph82%30.63 "HgN/A
12:30 pm45 °FPartly sunny.1 mph87%30.63 "HgN/A
12:00 pm45 °FPartly sunny.2 mph81%30.63 "HgN/A
11:30 am45 °FPartly sunny.No wind81%30.63 "HgN/A
11:00 am45 °FOvercast.3 mph81%30.63 "HgN/A
10:30 am45 °FPartly sunny.5 mph81%30.63 "HgN/A
10:00 am45 °FPartly sunny.2 mph81%30.63 "HgN/A
9:30 am45 °FPartly sunny.5 mph81%30.66 "HgN/A
9:00 am45 °FPartly sunny.3 mph81%30.63 "HgN/A
8:30 am45 °FPartly sunny.2 mph81%30.63 "HgN/A
8:00 am45 °FPassing clouds.6 mph81%30.63 "HgN/A
7:30 am45 °FPassing clouds.3 mph81%30.63 "HgN/A
7:00 am45 °FPassing clouds.6 mph81%30.63 "HgN/A
6:30 am45 °FPassing clouds.5 mph81%30.60 "HgN/A
6:00 am45 °FPassing clouds.5 mph81%30.60 "HgN/A
5:30 am45 °FPassing clouds.5 mph81%30.60 "HgN/A
5:00 am45 °FPassing clouds.2 mph81%30.63 "HgN/A
4:30 am45 °FPassing clouds.5 mph81%30.63 "HgN/A
4:00 am45 °FPassing clouds.6 mph81%30.63 "HgN/A
3:30 am45 °FPassing clouds.5 mph81%30.63 "HgN/A
3:00 am45 °FPassing clouds.6 mph81%30.63 "HgN/A
2:30 am45 °FPassing clouds.6 mph81%30.63 "HgN/A
2:00 am46 °FPassing clouds.6 mph76%30.63 "HgN/A
Weather by CustomWeather, © 2017

See weather overviewHow to use our weather pages